Regional Weather Roundup
Issued by NWS

Home | Current Version | Previous Version | Graphics & Text | Print | Product List | Glossary On
Versions: 1 2 3 4 5 6 7 8 9 10 11 12 13 14 15 16 17 18 19 20 21 22 23 24 25 26 27 28 29 30 31 32 33 34 35 36 37 38 39 40 41 42 43 44 45 46 47 48 49 50
045
ASUS44 KMEG 101100
RWRTN
TENNESSEE HOURLY STATE WEATHER ROUNDUP
NATIONAL WEATHER SERVICE MEMPHIS TN
500 AM CST WED FEB 10 2016

TNZ002-004-019-021-049-052-054-088>092-101200-
WEST TENNESSEE

CITY           SKY/WX    TMP DP  RH WIND       PRES   REMARKS
MEMPHIS INTL   CLEAR     25   8  48 NW8       30.22R WCI  16
NWS MEMPHIS      N/A     23 N/A N/A MISG        N/A
JACKSON        CLEAR     21  10  62 NW7       30.19R WCI  12
DYERSBURG      CLEAR     21   9  58 NW8       30.22S WCI  12
UNION CITY     CLEAR     19   9  63 NW9       30.16S WCI   9
PARIS          CLEAR     16   7  67 W5        30.14R WCI   9
$$

TNZ008-025-027-028-033-062-065-066-101200-
NORTH MIDDLE TENNESSEE

CITY           SKY/WX    TMP DP  RH WIND       PRES   REMARKS
NASHVILLE      LGT SNOW  21  15  78 NW10      30.12R WCI  10
CLARKSVILLE    CLOUDY    17   9  70 NW9       30.13R WCI   6
COOKEVILLE     CLOUDY    19  12  73 CALM      30.06R
CROSSVILLE     CLOUDY    15   8  73 NW12G21   29.99R WCI   2
$$

TNZ061-075-076-078-094-096-097-101200-
SOUTH MIDDLE TENNESSEE

CITY           SKY/WX    TMP DP  RH WIND       PRES   REMARKS
TULLAHOMA      CLOUDY    19  18  93 W6        30.09R WCI  11
WINCHESTER     CLOUDY    19  16  86 W7        30.11R WCI  10
MCMINNVILLE    CLOUDY    19  14  79 W8        30.08R WCI   9
COLUMBIA       CLOUDY    21  19  93 W6        30.11R WCI  14
SHELBYVILLE    CLOUDY    21  18  86 SW3       30.12R
$$

TNZ017-018-042-046-047-101200-
NORTHEAST TENNESSEE

CITY           SKY/WX    TMP DP  RH WIND       PRES   REMARKS
TRI CITIES     CLOUDY    19  10  68 W13       29.93R WCI   6
$$

TNZ012-013-036-069-073-074-101200-
CENTRAL EAST TENNESSEE

CITY           SKY/WX    TMP DP  RH WIND       PRES   REMARKS
KNOXVILLE      LGT SNOW  20  10  65 W17       30.04R WCI   5
OAK RIDGE      CLOUDY    20  10  65 W7        30.06R WCI  11
GATLINBURG     CLOUDY    19  10  68 SW5       30.02R WCI  13
$$

TNZ083-085-099-101200-
SOUTHEAST TENNESSEE

CITY           SKY/WX    TMP DP  RH WIND       PRES   REMARKS
CHATTANOOGA    CLOUDY    22  11  62 W7        30.11R WCI  13
$$

SKY/WX REPORTED AS FAIR MEANS FEW OR NO CLOUDS BELOW
12 THOUSAND FEET.





USA.gov is the U.S. government's official web portal to all federal, state and local government web resources and services.